Weather Roundup
Issued by NWS

Home | Current Version | Previous Version | Text Only | Print | Product List | Glossary On
Versions: 1 2 3 4 5 6 7 8 9 10 11 12 13 14 15 16 17 18 19 20 21 22 23 24 25 26 27 28 29 30 31 32 33 34 35 36 37 38 39 40 41 42 43 44 45 46 47 48 49 50
000
NZUS93 KARX 211610
HRRWXR

CURRENT HOURLY OBSERVATIONS ACROSS
MUCH OF THE UPPER MISSISSIPPI VALLEY
NATIONAL WEATHER SERVICE LA CROSSE WI
1000 AM CST FRI NOV 21 2014


...SOUTHEAST MINNESOTA...


CITY           SKY/WX    TMP DP  RH WIND       PRES   REMARKS
ROCHESTER      MOSUNNY   15   7  70 S20       30.22F WCI  -2
ROCHESTER/MAYO FAIR      16   5  60 S13G21    30.23F WCI   3
WINONA         MOSUNNY   19  10  68 S8        30.30F WCI   9
AUSTIN         MOSUNNY   16   9  73 S10G17    30.21F WCI   3
ALBERT LEA     MOSUNNY   19  10  68 S14G22    30.19F WCI   6
DODGE CENTER   MOSUNNY   16   9  73 S22       30.19S WCI  -2
PRESTON        MOSUNNY   15   7  71 S15       30.24F WCI  -1
OWATONNA       MOSUNNY   18   9  68 S18G25    30.17F WCI   2
FARIBAULT      MOSUNNY   18  10  73 S15G21    30.19S WCI   3
$$

...ELSEWHERE IN MINNESOTA...


CITY           SKY/WX    TMP DP  RH WIND       PRES   REMARKS
MINNEAPOLIS    PTSUNNY   17   9  70 S12       30.18F WCI   4
INTNL FALLS    PTSUNNY   20  10  65 S10G21    29.84F WCI   9
DULUTH         PTSUNNY   13   3  64 S16G24    30.03F WCI  -3
RED WING         N/A     18   9  68 SE7       30.23F WCI   8
REDWOOD FALLS  SUNNY     21  14  74 S18       30.06F WCI   6
MANKATO        PTSUNNY   19   9  63 S17       30.15F WCI   4
WORTHINGTON    SUNNY     25  18  74 S23G32    30.08S WCI  10
FAIRMONT       SUNNY     18  10  73 S23       30.14F WCI   0
$$

...SOUTHWEST WISCONSIN...


CITY           SKY/WX    TMP DP  RH WIND       PRES   REMARKS
LA CROSSE      MOSUNNY   18   7  62 S14       30.33R WCI   4
PRAIRIE DU CHI MOSUNNY   19   7  59 S5        30.36F WCI  12
BOSCOBEL       SUNNY     20   7  57 S8        30.37F WCI  10
LONE ROCK      SUNNY     19   6  57 SE6       30.38F WCI  11
PLATTEVILLE    SUNNY     19  10  65 S12       30.36S WCI   7
FORT MC COY    MOSUNNY   18   4  54 S12       30.32S WCI   6
CAMP DOUGLAS   MOSUNNY   18   5  57 S10       30.32F WCI   6
VIROQUA        FAIR      17   6  62 S9        30.29S WCI   6
WIS DELLS      SUNNY     19   4  51 S12       30.35S WCI   7
$$

...ELSEWHERE IN WISCONSIN...


CITY           SKY/WX    TMP DP  RH WIND       PRES   REMARKS
MILWAUKEE      MOSUNNY   21   2  43 SW12      30.43R WCI   9
MADISON        SUNNY     19   5  54 S13       30.38S WCI   6
GREEN BAY      SUNNY     17   5  59 SW12      30.38S WCI   4
EAU CLAIRE     MOSUNNY   15   4  61 S14       30.24F WCI   0
BLACK RVR FLS  FAIR      16   5  60 SW5       30.31S WCI   9
MEDFORD        MOSUNNY   11   3  67 S9        30.22F WCI  -1
WAUSAU         MOSUNNY   11   3  70 S10       30.27F WCI  -3
WIS RAPIDS     MOSUNNY   15   0  51 S14G20    30.32F WCI   0
MARSHFIELD     MOSUNNY   15   3  59 S13       30.26F WCI   1
RICE LAKE      MOSUNNY   10   7  89 SE8       30.21F WCI  -3
$$

...NORTHEAST IOWA...


CITY           SKY/WX    TMP DP  RH WIND       PRES   REMARKS
DECORAH        MOSUNNY   16   5  62 S13G18    30.28F WCI   2
MASON CITY     SUNNY     17  10  74 S20       30.24F WCI   1
CHARLES CITY   SUNNY     18   9  68 S14       30.28F WCI   4
OELWEIN        MOSUNNY   16   7  67 S17       30.31F WCI   0
$$

...ELSEWHERE IN IOWA...


CITY           SKY/WX    TMP DP  RH WIND       PRES   REMARKS
DES MOINES     MOSUNNY   25  14  63 S15       30.29F WCI  13
IOWA CITY      SUNNY     21  12  68 SE14      30.40F WCI   8
FORT DODGE     MOSUNNY   23  12  63 S13G20    30.23S WCI  11
$$

...NORTHERN ILLINOIS...


CITY           SKY/WX    TMP DP  RH WIND       PRES   REMARKS
CHICAGO-OHARE  SUNNY     22   2  42 SE8       30.45S WCI  12
CHICAGO-MIDWAY SUNNY     25   3  38 S6        30.47S WCI  18
MOLINE         SUNNY     22   9  57 SE10      30.41S WCI  11
ROCKFORD       SUNNY     23   7  50 SE9       30.43F WCI  13
PEORIA         SUNNY     25   7  46 SE10      30.46R WCI  15
$$

NOTE: "FAIR" INDICATES FEW OR NO CLOUDS BELOW 12,000 FEET WITH NO
SIGNIFICANT WEATHER AND/OR OBSTRUCTIONS TO VISIBILITY. WIND
SPEEDS ARE IN MILES-PER-HOUR.



USA.gov is the U.S. government's official web portal to all federal, state and local government web resources and services.